Location: Dal�� Lhota
(48.7500°N, 14.0167°E)
Time: 12:06:33
(UTC+00:00)

Vanguard 1 Rocket - All Passes

Search period start: 02 August 2021 00:00
Search period end: 12 August 2021 00:00
Orbit: 650 x 4226 km, 34.3° (Epoch: 01 August)

Date Brightness Start Highest point End Pass type
(mag) Time Alt. Az. Time Alt. Az. Time Alt. Az.
02 Aug - 05:45:38 10° S 05:57:10 16° SE 06:06:29 10° ESE daylight
02 Aug - 08:07:20 10° SW 08:24:55 33° SSE 08:35:48 10° ESE daylight
02 Aug - 10:36:44 10° WSW 10:51:50 40° S 11:00:11 10° ESE daylight
02 Aug - 13:07:50 10° WSW 13:16:43 26° SSW 13:22:20 10° SSE daylight
03 Aug - 06:54:41 10° SSW 07:12:09 28° SSE 07:24:06 10° ESE daylight
03 Aug - 09:22:12 10° SW 09:39:49 40° S 09:49:47 10° ESE daylight
03 Aug - 11:53:16 10° WSW 12:05:48 35° SSW 12:12:56 10° SE daylight
03 Aug - 14:25:47 10° WSW 14:29:23 13° SW 14:32:19 10° SSW daylight
04 Aug - 05:43:39 10° S 05:59:14 22° SE 06:11:12 10° ESE daylight
04 Aug - 08:08:03 10° SW 08:27:17 38° SSE 08:38:55 10° ESE daylight
04 Aug - 10:38:27 10° WSW 10:54:19 41° S 11:03:02 10° ESE daylight
04 Aug - 13:10:16 10° W 13:19:02 23° SSW 13:24:42 10° SSE daylight
05 Aug - 04:35:46 10° SSE 04:46:23 14° SE 04:55:39 10° ESE daylight
05 Aug - 06:54:46 10° SSW 07:14:22 33° SSE 07:27:26 10° E daylight
05 Aug - 09:23:35 10° WSW 09:42:14 44° S 09:52:40 10° ESE daylight
05 Aug - 11:55:20 10° W 12:08:11 34° SSW 12:15:34 10° SE daylight
05 Aug - 14:30:34 10° SW 14:31:29 10° SW 14:32:20 10° SW daylight
06 Aug - 05:42:51 10° SSW 06:01:15 27° SSE 06:15:01 10° E daylight
06 Aug - 08:09:03 10° SW 08:29:36 42° SSE 08:41:53 10° ESE daylight
06 Aug - 10:40:16 10° WSW 10:56:43 42° SSW 11:05:46 10° SE daylight
06 Aug - 13:12:50 10° W 13:21:13 21° SW 13:26:51 10° S daylight
07 Aug - 04:33:02 10° S 04:48:12 20° SE 05:00:58 10° E daylight
07 Aug - 06:55:18 10° SW 07:16:31 38° SSE 07:30:31 10° E daylight
07 Aug - 09:25:07 10° WSW 09:44:36 46° S 09:55:29 10° ESE daylight
07 Aug - 11:57:29 10° W 12:10:28 32° SSW 12:18:04 10° SSE daylight
08 Aug - 03:28:07 10° SSE 03:35:27 12° SE 03:42:23 10° ESE daylight
08 Aug - 05:42:45 10° SSW 06:03:12 32° SSE 06:18:22 10° E daylight
08 Aug - 08:10:17 10° SW 08:31:52 46° S 08:44:44 10° ESE daylight
08 Aug - 10:42:08 10° WSW 10:59:03 41° SSW 11:08:26 10° SE daylight
08 Aug - 13:15:37 10° W 13:23:16 18° SW 13:28:42 10° S daylight
09 Aug - 04:31:53 10° S 04:49:56 25° SE 05:05:01 10° E daylight
09 Aug - 06:56:10 10° SW 07:18:38 43° SSE 07:33:26 10° E daylight
09 Aug - 09:26:46 10° WSW 09:46:55 47° S 09:58:13 10° ESE daylight
09 Aug - 11:59:41 10° W 12:12:36 29° SW 12:20:25 10° SSE daylight
10 Aug - 03:23:45 10° SSE 03:37:00 17° SE 03:49:15 10° E daylight
10 Aug - 05:43:10 10° SSW 06:05:07 38° SSE 06:21:26 10° E daylight
10 Aug - 08:11:43 10° WSW 08:34:05 49° S 08:47:30 10° ESE daylight
10 Aug - 10:44:04 10° W 11:01:16 40° SSW 11:10:59 10° SE daylight
10 Aug - 13:18:46 10° W 13:25:12 15° SW 13:30:04 10° SSW daylight
11 Aug - 04:31:36 10° SSW 04:51:38 30° SE 05:08:27 10° E daylight
11 Aug - 06:57:20 10° SW 07:20:42 47° SSE 07:36:14 10° E daylight
11 Aug - 09:28:31 10° WSW 09:49:08 47° SSW 10:00:52 10° SE daylight
11 Aug - 12:02:00 10° W 12:14:37 26° SW 12:22:32 10° SSE daylight
